Simultaneous Nadir Overpasses (SNOs) Predictions

Prediction of SNOs between AQUA and METOP-A Satellite Orbit:

Table of predicted SNOs for the next 14.0 days since TLE Epoch: 10/29/2016
Index Date (AQUA) Time (AQUA) Lat,Lon (AQUA) SZA (AQUA ) Date (METOP-A) Time (METOP-A) Lat,Lon (METOP-A) SZA (METOP-A ) Distance(km) Time Diff (sec)
1 10/29/2016 21:16:30 -73.79, 35.06 92.49 10/29/2016 21:15:18 -73.76, 35.06 92.52 3.62 72
2 10/29/2016 22:05:59 73.86,-157.45 87.60 10/29/2016 22:05:56 73.85,-157.37 87.60 2.26 3
3 10/29/2016 22:55:25 -73.89, 10.12 92.36 10/29/2016 22:56:37 -73.89, 10.03 92.37 2.99 72
4 11/01/2016 16:50:45 -73.79, 101.49 91.58 11/01/2016 16:49:39 -73.77, 101.51 91.60 2.52 66
5 11/01/2016 17:40:14 73.87, -91.03 88.51 11/01/2016 17:40:17 73.86, -90.94 88.51 2.88 3
6 11/01/2016 18:29:43 -74.05, 76.20 91.30 11/01/2016 18:30:55 -74.05, 76.83 91.30 19.35 72
7 11/04/2016 12:25:00 -73.76, 168.00 90.74 11/04/2016 12:24:01 -73.78, 167.95 90.71 3.21 59
8 11/04/2016 13:14:29 73.84, -24.53 89.36 11/04/2016 13:14:39 73.87, -24.52 89.39 3.39 10
9 11/04/2016 14:04:03 -74.27, 142.12 90.19 11/04/2016 14:05:12 -74.30, 143.89 90.17 53.31 69
10 11/07/2016 07:59:16 -73.79,-125.62 89.87 11/07/2016 07:58:23 -73.79,-125.63 89.86 0.15 53
11 11/07/2016 08:48:45 73.87, 41.82 90.24 11/07/2016 08:49:01 73.87, 41.90 90.23 2.40 16
12 11/07/2016 09:38:24 -74.55,-152.12 89.06 11/07/2016 09:39:29 -74.55,-149.05 89.08 91.17 65
13 11/10/2016 03:33:31 -73.78, -59.17 89.07 11/10/2016 03:32:45 -73.79, -59.20 89.05 1.96 46
14 11/10/2016 04:22:59 73.87, 108.27 91.04 11/10/2016 04:23:22 73.87, 108.31 91.04 1.30 23




NCC Satellite Simultaneous Nadir Overpasses (SNOs) Prediction Service
